EOLE 1 (CAS-A)

Satellite information

Favourite Embed

Satellite Type and Status

PAYLOADIN ORBIT

Key statistics

Satellite EOLE 1 (CAS-A) at a glance.

Uptime

19844

Days in orbit

Revolutions

≈ 14.6

Per day

Orbit

LEO

Low Earth Orbit

Inclination

50.1

Latest

Satellite identification and parameters

Extended collection of information and parameters for EOLE 1 (CAS-A).

Object identification

Identified? True

Debris? False

Object name: EOLE 1 (CAS-A)

International designator: 1971-071A

Object number (NORAD): 5435

Object ID (CCSDS): 5435

Country: FRANCE (FR)

Current information (Y/N): Y

RCS size: LARGE

Orbital parameters

Period: 98.639 minutes

Inclination: 50.1375 deg

SMA: 7071.743 km

Apoapsis: 766.099 km

Periapsis: 621.117 km

RAAN: 177.6422 deg

Eccentricy: 0.01025085

Argument of periapsis: 213.8177 deg

Mean anomaly: 145.6187 deg

Mean motion: 14.59866233 rev/day

Mean motion (dot): 0.00001239 rev/day2

B* drag term: 0.00027843122 1/REarth

Two-line elements (TLE)

Creation date: Dec. 12, 2025, 10:14 a.m.

Reference frame: TEME

Reference center: EARTH

Epoch: Dec. 12, 2025, 6:42 a.m. UTC

TLE line 0: 0 EOLE 1 (CAS-A)

TLE line 1: 1 05435U 71071A 25346.27918271 .00001239 00000-0 27843-3 0 9992

TLE line 2: 2 05435 50.1375 177.6422 0102508 213.8177 145.6187 14.59866233848687

Live tracking on map

Real-time ground track for satellite EOLE 1 (CAS-A).

In-orbit conjunctions

A list of the most updated potential collisions computed for object EOLE 1 (CAS-A).

Target Orbit TCA Probability of collision Miss distance Type
SL-24 DEB SSO 2025-11-20 02:46:39 0.0005243093 541.0 (m) DEBRIS
COSMOS 1900 DEB LEO 2025-09-27 02:16:15 0.003434574 167.0 (m) DEBRIS
THOR ABLESTAR DEB LEO 2025-04-05 12:17:23 0.0003014405 266.0 (m) DEBRIS
FENGYUN 1C DEB SSO 2025-02-13 09:49:11 0.0001482785 780.0 (m) DEBRIS
SL-8 R/B LEO 2024-12-22 14:54:36 0.0002376353 824.0 (m) ROCKET BODY

Associated space launch

Second French experimental data relay satellite for meteorological data.

EOLE 1 (CAS-A) was lifted into orbit during the mission ‘Scout B-1 | Eole’, on board a Scout B-1 space rocket.

The launch took place on Aug. 16, 1971, 6:39 p.m. from Launch Area 3A.

For more information about the launch, click the button.

Launch to space Scout B-1 | Eole
Scout B-1 | Eole

Agency: N/A

Status: Launch Successful

Launch date: Aug. 16, 1971, 6:39 p.m. UTC

Rocket: Scout B-1

Launch pad: Launch Area 3A

Location: Wallops Flight Facility, Virginia, USA

...

Latest news about this satellite

There are no fresh news available about this satellite. Check back as we update our databases every day.


Newsletter sign-up

Weekly statistics, charts and insights to help you stay on top of the space industry.